Location: Exeidioux
(45.6312°N, 1.6819°E)
Time: 07:05:08
(UTC+00:00)

HJ-1C - Pass Details

Date: 03 March 2021
Orbit: 428 x 441 km, 97.1° (Epoch: 10 April)

Event Time Altitude Azimuth Distance (km) Brightness Sun altitude
Rises 18:31:29 0° 156° (SSE) 2,416 6.9 -9.3°
Reaches altitude 10° 18:33:32 10° 152° (SSE) 1,549 5.8 -9.6°
Maximum altitude 18:36:46 54° 75° (ENE) 543 3.4 -10.2°
Drops below altitude 10° 18:40:02 10° 357° (N) 1,556 6.2 -10.8°
Sets 18:42:04 0° 353° (N) 2,427 7.2 -11.1°
